User: anonymous   Login
Location: Fort Wayne
(41.1310°N, 85.1290°W)
Time: 11:52:56
(UTC-04:00)
Language:

SR - Orbit

View from above orbital plane
View from above orbital plane
View from above satellite
View from above satellite

Ground track
Ground track

The orbit data is extracted from the following two-line orbital elements,

1 00046U 60007B   15215.36937291  .00000647  00000-0  15315-3 0  9992
2 00046 066.6898 174.5994 0209816 015.6397 345.1059 14.48580282881197
Epoch (UTC): 03 August 2015 08:51:53
Eccentricity: 0.0209816
inclination: 66.6898°
perigee height: 581 km
apogee height: 879 km
right ascension of ascending node: 174.5994°
argument of perigee: 15.6397°
revolutions per day: 14.48580282
mean anomaly at epoch: 345.1059°
orbit number at epoch: 88119

The dashed part of the orbit path shows where the satellite is in the earth's shadow,  

DLR